Starlink 32809

operational
NORAD ID: 62849 Int'l Des: 2025-019 Owner: SPXS Country: US Constellation: starlink
LEOCIRCULAR

Starlink 32809について

説明を読み込み中...

リアルタイム位置

3D地球を読み込み中...

次回通過

高度履歴

Altitude vs Time

uPlot chart will show altitude changes over time

軌道要素

1 62849U 25019W 25257.99100197 .00018560 00000-0 68220-3 0 9994
2 62849 43.0010 0.9290 0001481 274.0933 85.9750 15.27583135 35384
Epoch: Sep 14, 2025 • Age: 14 hours

現在のステータス

高度 493.7 km
速度 7.62 km/s
衛星直下点 -39.21°S, 98.23°E
打ち上げ日 Jan 27, 2025
運用期間 0.6 years
タイプ internet

技術仕様

分類 Payload
質量 730.00 kg
乾燥質量 700.00 kg
総質量 730.00 kg
長さ 0.30 m
直径 4.10 m
スパン 29.00 m
形状 Box + pan
製造者 SPXS
バスタイプ Starlink V2M
フェーズステータス In Orbit
所有者/国 SPXS/US

大規模コンステレーション

Loading constellations...